STARLINK-32441, 61668

Orbit data source: Space-Track

STARLINK-32441, 61668 is a payload satellite owned by SpaceX/Seattle (US) in LEO that was launched on Sat, 26 Oct 2024 UTC via an FALCON 9 launch vehicle from the Air Force Eastern Test Range (AFETR). Payload-class satellites include a variety of spacecraft equipped with specific instruments for various scientific and technological missions. These include communications satellites like Starlink; space stations such as the ISS; scientific satellites like the Hubble; Earth observation satellites from companies like Planet Labs, Umbra, and HawkEye 360; GPS; miniature CubeSats for education and research; and military/defense satellites.

Loading next visibility...
Identifier
61668, 2024-193H
Orbit
LEO
Last TLE update
1 day ago
Origin
Manufacturer
SpaceX/Seattle
Mission
Operational Commercial Communications
Bus & Motor
STARLINK V2M, Unknown motor
Mass
730 kg wet, ~700 kg dry
Launch date (UTC)
2024-10-26 (8 months ago)
Launch vehicle
FALCON 9
Launch site
Air Force Eastern Test Range (AFETR)
Object type
Payload
Rocket body
Debris
Shape & HBR
Box + 2 Pan, 29 m
Radar Cross Section
36.964 m², Large (>1 m²)

Expand to show TLE details & history

TLE from 1 day ago
0 STARLINK-32441
1 61668U 24193H   25182.15310097 -.00000494  00000-0 -45770-5 0  9997
2 61668  53.1591 179.4875 0001019  82.7971 277.3146 15.30193481 38016
Epoch: 2025-07-01T03:40Z
TLE epoch observation values (Epoch: 2025-07-01T03:40:27.923Z)
Latitude
-0.00001°
Longitude
-155.0815°
Altitude
476.045 km
Speed
7.629 km/s
True Right ascension
11h 57m 56s
True Declination
0° 00' 00"
Sunlit
Object was in daylight at epoch
Visualization orbit readout
Latitude
-7.90974°
Longitude
-165.87042°
Altitude
477.57 km
Speed
7.628 km/s
Apparent Right ascension
08h 35m 13s
Apparent Declination
-33° 54' 08"
Sunlit
Object is in daylight
Visualization observer readout
Local Sidereal Time
16:24:11
Azimuth
255.998° W
Elevation
-40.49°
Doppler factor
1
Orbital elements
Apogee altitude
476.189 km
Perigee altitude
474.793 km
Semi-major axis
6,853.628 km
Eccentricity
0.0001
Inclination
53.1591°
RAAN
179.4875°
Arg. of periapsis
82.7971°
True anomaly
Unknown
Mean anomaly
277.3146°
Eccentric anomaly
Unknown
Mean motion
3.82527 °/min
Orbital period
94.11 mins
BSTAR
-0.000004577
Loading maneuver chart data...
Loading SW <> Apogee altitude chart data...
Loading historical data...
Loading historical data...
Loading historical data...
Loading historical data...
Loading historical data...
Loading historical data...
Loading historical data...

STARLINK-32441 Visibility forecast

Observer location: undefined°, undefined°

Span
Click to sort rows by Start time (UTC) header in descending order
Start Az.
Max El. time (UTC)
Max El. Az.
Max El.
End time (UTC)
End Az.
4 mins2025-07-02 08:22:44.639Z346.607° N2025-07-02 08:24:44.639Z47.012° ENE27.16°2025-07-02 08:26:44.639Z88.547° E
4 mins2025-07-02 10:00:44.639Z270.06° WNW2025-07-02 10:01:44.639Z243.036° WSW27.52°2025-07-02 10:04:44.639Z169.077° S
4 mins2025-07-03 01:18:44.639Z165.686° S2025-07-03 01:19:44.639Z139.592° SSE24.572°2025-07-03 01:22:44.639Z75.385° E
5 mins2025-07-03 02:55:44.639Z270.89° WNW2025-07-03 02:57:44.639Z324.102° NNW30.501°2025-07-03 03:00:44.639Z32.85° NE
|